Powrót do katalogu

SIRIUS 2

AktywnyŁącznośćMEO
NORAD 26483·PAYLOAD·🇺🇸 United States

Wystrzelony Sep 5, 2000 z Baikonur Cosmodrome

Loading…

Następne Przeloty (najbliższe 24 godziny)

TLE

ŚwieżeSource: Space-Track

Epoka: Sep 11, 2026, 19:39 UTC

1 26483U 00051A   26254.81890775 -.00000047  00000-0  00000-0 0  9995
2 26483  67.1816  41.3573 0210349 246.5152 111.7722  1.64981933 69865

Śledź SIRIUS 2 w czasie rzeczywistym z AllMySat

Download on the App Store